Terminal Aerodrome Forecast
Issued by NWS

Home | Current Version | Previous Version | Text Only | Print | Product List | Glossary On
Versions: 1 2 3 4 5 6 7 8 9 10 11 12 13 14 15 16 17 18 19 20 21 22 23 24 25 26 27 28 29 30 31 32 33 34 35 36 37 38 39 40 41 42 43 44 45 46 47 48 49 50
000
FTUS45 KVEF 262000 AAA
TAFLAS
TAF AMD
KLAS 262058Z 2621/2718 17005KT P6SM FEW100 SCT150 OVC200
     FM270100 17005KT P6SM VCSH SCT070 BKN100
     FM270300 20005KT P6SM -RA BKN050 OVC080
     FM270600 20005KT P6SM -SHRA BKN050 BKN080
     FM271000 20005KT P6SM VCSH SCT050 BKN080=

USA.gov is the U.S. government's official web portal to all federal, state and local government web resources and services.